Regional Weather Roundup
Issued by NWS Memphis, TN

Home | Current Version | Previous Version | Text Only | Print | Product List | Glossary On
Versions: 1 2 3 4 5 6 7 8 9 10 11 12 13 14 15 16 17 18 19 20 21 22 23 24 25 26 27 28 29 30 31 32 33 34 35 36 37 38 39 40 41 42 43 44 45 46 47 48 49 50
782
ASUS44 KMEG 260010
RWRMEG
MEMPHIS CWA HOURLY WEATHER ROUNDUP
NATIONAL WEATHER SERVICE MEMPHIS TN
700 PM CDT SUN JUN 25 2017

...WEST TENNESSEE...

CITY           SKY/WX    TMP DP  RH WIND       PRES   REMARKS
MEMPHIS INTL   SUNNY     83  49  30 NE10      30.17R
6HR MIN TEMP:  83; 6HR MAX TEMP:  86;

NWS MEMPHIS      N/A     83 N/A N/A MISG        N/A
JACKSON        SUNNY     83  50  31 NW7       30.17S
6HR MIN TEMP:  82; 6HR MAX TEMP:  86;

COVINGTON      SUNNY     81  50  34 NE5       30.17S
SOMERVILLE     SUNNY     81  55  41 CALM      30.17R
BOLIVAR        SUNNY     81  52  36 NW3       30.17R
LEXINGTON      SUNNY     79  52  38 CALM      30.17R
SELMER         SUNNY     79  57  47 N3        30.17S
SAVANNAH       SUNNY     79  54  41 N3        30.16R
UNION CITY     SUNNY     81  54  39 W5        30.15S
PARIS          SUNNY     79  55  44 CALM      30.15F
HUNTINGDON     SUNNY     81  52  36 CALM      30.16S


...EASTERN ARKANSAS...

CITY           SKY/WX    TMP DP  RH WIND       PRES   REMARKS
JONESBORO      SUNNY     85  51  31 N3        30.17S
6HR MIN TEMP:  83; 6HR MAX TEMP:  87;

WEST MEMPHIS   SUNNY     82  55  39 N5        30.16R
6HR MIN TEMP:  81; 6HR MAX TEMP:  85;

BATESVILLE     SUNNY     82  55  39 W3        30.18S
6HR MIN TEMP:  82; 6HR MAX TEMP:  86;

WALNUT RIDGE   SUNNY     82  55  39 CALM      30.17S
6HR MIN TEMP:  81; 6HR MAX TEMP:  84;

BLYTHEVILLE    SUNNY     83  54  36 W3        30.17S
6HR MIN TEMP:  82; 6HR MAX TEMP:  85;

SEARCY         SUNNY     84  61  45 MISG        N/A
6HR MIN TEMP:  82; 6HR MAX TEMP:  87;

STUTTGART      SUNNY    N/A N/A N/A N6        30.18S
PINE BLUFF     SUNNY     81  61  50 NE3       30.17S
6HR MIN TEMP:  81; 6HR MAX TEMP:  84;

MONTICELLO     SUNNY     82  62  50 NE3       30.16F
6HR MIN TEMP:  81; 6HR MAX TEMP:  84;



...NORTH MISSISSIPPI...

CITY           SKY/WX    TMP DP  RH WIND       PRES   REMARKS
TUPELO         SUNNY     81  52  36 N8        30.16R
6HR MIN TEMP:  80; 6HR MAX TEMP:  83;

OXFORD           N/A     79  52  38 N3        30.19R
BATESVILLE     SUNNY     82  57  42 NE3       30.17R
6HR MIN TEMP:  81; 6HR MAX TEMP:  85;

OLIVE BRANCH   SUNNY    N/A N/A N/A NE6       30.17R
TUNICA           N/A     81  55  41 N6        30.17S
CLARKSDALE       N/A     82  63  51 NE3       30.17R
CORINTH        SUNNY     81  54  39 CALM      30.17R
GREENWOOD      SUNNY     81  66  60 CALM      30.15S
6HR MIN TEMP:  77; 6HR MAX TEMP:  84;

COLUMBUS       SUNNY     77  67  69 SW3       30.15R
6HR MIN TEMP:  72; 6HR MAX TEMP:  78;

STARKVILLE     SUNNY     77  63  61 CALM      30.17S
GOLDEN TRIANGL SUNNY     75  57  53 CALM      30.15


...SOUTHEAST MISSOURI...

CITY           SKY/WX    TMP DP  RH WIND       PRES   REMARKS
KENNETT        SUNNY     84  54  34 W7        30.15S
MALDEN         SUNNY     82  52  34 SW8       30.17S
WEST PLAINS    SUNNY     81  50  33 NW8       30.22S
6HR MIN TEMP:  80; 6HR MAX TEMP:  86;

POPLAR BLUFF   SUNNY     82  58  43 S3        30.15S
6HR MIN TEMP:  82; 6HR MAX TEMP:  86;

CAPE GIRARDEAU SUNNY     82  50  32 NW9       30.14S
6HR MIN TEMP:  82; 6HR MAX TEMP:  85;



...NORTHWEST ALABAMA...

CITY           SKY/WX    TMP DP  RH WIND       PRES   REMARKS
MUSCLE SHOALS  SUNNY     82  50  32 N3        30.17R
6HR MIN TEMP:  80; 6HR MAX TEMP:  85;



...MIDDLE TENNESSEE...

CITY           SKY/WX    TMP DP  RH WIND       PRES   REMARKS
NASHVILLE      SUNNY     81  45  28 NW7       30.17R
6HR MIN TEMP:  81; 6HR MAX TEMP:  85;

CLARKSVILLE    SUNNY     79  52  38 W6        30.16R
6HR MIN TEMP:  79; 6HR MAX TEMP:  82;

COLUMBIA       SUNNY     79  46  31 NW6       30.15S


...WESTERN KENTUCKY...

CITY           SKY/WX    TMP DP  RH WIND       PRES   REMARKS
PADUCAH        SUNNY     83  50  31 W5        30.14S
6HR MIN TEMP:  82; 6HR MAX TEMP:  84;

FORT CAMPBELL  SUNNY     80  51  37 W7        30.15S
6HR MIN TEMP:  80; 6HR MAX TEMP:  82;



...CENTRAL ARKANSAS...

CITY           SKY/WX    TMP DP  RH WIND       PRES   REMARKS
LITTLE ROCK    MOSUNNY   81  54  39 E7        30.18R
6HR MIN TEMP:  81; 6HR MAX TEMP:  85;



SKY/WX REPORTED AS FAIR MEANS FEW OR NO CLOUDS BELOW
12 THOUSAND FEET.





USA.gov is the U.S. government's official web portal to all federal, state and local government web resources and services.